Time,TemperatureF,DewpointF,PressureIn,WindDirection,WindDirectionDegrees,WindSpeedMPH,WindSpeedGustMPH,Humidity,HourlyPrecipIn,Conditions,Clouds,dailyrainin,SolarRadiationWatts/m^2,SoftwareType,DateUTC
2013-01-16 00:03:00,5.0,2.0,-100.00,NE,42,3.0,3.0,87,0.00,,,0.00,0.000000,,2013-01-16 05:03:00,
2013-01-16 00:33:00,3.0,0.0,-100.00,SE,145,0.0,3.0,85,0.00,,,0.00,0.000000,,2013-01-16 05:33:00,
2013-01-16 00:42:00,3.0,0.0,-100.00,SE,145,0.0,3.0,85,0.00,,,0.00,0.000000,,2013-01-16 05:42:00,
2013-01-16 00:53:00,3.0,0.0,-100.00,SE,145,0.0,3.0,85,0.00,,,0.00,0.000000,,2013-01-16 05:53:00,
2013-01-16 01:03:00,3.0,0.0,-100.00,SE,145,0.0,3.0,85,0.00,,,0.00,0.000000,,2013-01-16 06:03:00,
2013-01-16 01:22:00,22.0,13.0,-100.00,WSW,245,5.0,10.0,69,0.00,,,0.00,0.000000,,2013-01-16 06:22:00,
2013-01-16 01:33:00,22.0,13.0,-100.00,WSW,245,5.0,10.0,69,0.00,,,0.00,0.000000,,2013-01-16 06:33:00,
2013-01-16 01:43:00,22.0,13.0,-100.00,WSW,245,5.0,10.0,69,0.00,,,0.00,0.000000,,2013-01-16 06:43:00,
2013-01-16 01:53:00,22.0,13.0,-100.00,WSW,245,5.0,10.0,69,0.00,,,0.00,0.000000,,2013-01-16 06:53:00,
2013-01-16 02:02:00,22.0,13.0,-100.00,WSW,245,5.0,10.0,69,0.00,,,0.00,0.000000,,2013-01-16 07:02:00,
2013-01-16 02:22:00,24.0,14.0,-100.00,WSW,244,7.0,11.0,66,0.00,,,0.00,0.000000,,2013-01-16 07:22:00,
2013-01-16 02:33:00,24.0,14.0,-100.00,WSW,244,7.0,11.0,66,0.00,,,0.00,0.000000,,2013-01-16 07:33:00,
2013-01-16 02:42:00,24.0,14.0,-100.00,WSW,244,7.0,11.0,66,0.00,,,0.00,0.000000,,2013-01-16 07:42:00,
2013-01-16 02:52:00,24.0,14.0,-100.00,WSW,244,7.0,11.0,66,0.00,,,0.00,0.000000,,2013-01-16 07:52:00,
2013-01-16 03:02:00,24.0,14.0,-100.00,WSW,244,7.0,11.0,66,0.00,,,0.00,0.000000,,2013-01-16 08:02:00,
2013-01-16 03:23:00,25.0,16.0,-100.00,SW,230,8.0,12.0,67,0.00,,,0.00,0.000000,,2013-01-16 08:23:00,
2013-01-16 03:33:00,25.0,16.0,-100.00,SW,230,8.0,12.0,67,0.00,,,0.00,0.000000,,2013-01-16 08:33:00,
2013-01-16 03:42:00,25.0,16.0,-100.00,SW,230,8.0,12.0,67,0.00,,,0.00,0.000000,,2013-01-16 08:42:00,
2013-01-16 03:53:00,25.0,16.0,-100.00,SW,230,8.0,12.0,67,0.00,,,0.00,0.000000,,2013-01-16 08:53:00,
2013-01-16 04:02:00,25.0,16.0,-100.00,SW,230,8.0,12.0,67,0.00,,,0.00,0.000000,,2013-01-16 09:02:00,
2013-01-16 04:33:00,23.0,14.0,-100.00,SW,223,7.0,14.0,69,0.00,,,0.00,0.000000,,2013-01-16 09:33:00,
2013-01-16 04:43:00,23.0,14.0,-100.00,SW,223,7.0,14.0,69,0.00,,,0.00,0.000000,,2013-01-16 09:43:00,
2013-01-16 04:53:00,23.0,14.0,-100.00,SW,223,7.0,14.0,69,0.00,,,0.00,0.000000,,2013-01-16 09:53:00,
2013-01-16 05:02:00,23.0,14.0,-100.00,SW,223,7.0,14.0,69,0.00,,,0.00,0.000000,,2013-01-16 10:02:00,
2013-01-16 05:33:00,24.0,17.0,-100.00,SW,215,6.0,9.0,73,0.00,,,0.00,0.000000,,2013-01-16 10:33:00,
2013-01-16 05:43:00,24.0,17.0,-100.00,SW,215,6.0,9.0,73,0.00,,,0.00,0.000000,,2013-01-16 10:43:00,
2013-01-16 05:53:00,24.0,17.0,-100.00,SW,215,6.0,9.0,73,0.00,,,0.00,0.000000,,2013-01-16 10:53:00,
2013-01-16 06:02:00,24.0,17.0,-100.00,SW,215,6.0,9.0,73,0.00,,,0.00,0.000000,,2013-01-16 11:02:00,
2013-01-16 06:33:00,27.0,18.0,-100.00,SW,221,11.0,17.0,68,0.00,,,0.00,0.000000,,2013-01-16 11:33:00,
2013-01-16 06:43:00,27.0,18.0,-100.00,SW,221,11.0,17.0,68,0.00,,,0.00,0.000000,,2013-01-16 11:43:00,
2013-01-16 06:53:00,27.0,18.0,-100.00,SW,221,11.0,17.0,68,0.00,,,0.00,0.000000,,2013-01-16 11:53:00,
2013-01-16 07:03:00,27.0,18.0,-100.00,SW,221,11.0,17.0,68,0.00,,,0.00,0.000000,,2013-01-16 12:03:00,
2013-01-16 07:33:00,28.0,18.0,-100.00,SW,219,15.0,26.0,67,0.00,,,0.00,0.000000,,2013-01-16 12:33:00,
2013-01-16 07:43:00,28.0,18.0,-100.00,SW,219,15.0,26.0,67,0.00,,,0.00,0.000000,,2013-01-16 12:43:00,
2013-01-16 07:53:00,28.0,18.0,-100.00,SW,219,15.0,26.0,67,0.00,,,0.00,0.000000,,2013-01-16 12:53:00,
2013-01-16 08:03:00,28.0,18.0,-100.00,SW,219,15.0,26.0,67,0.00,,,0.00,0.000000,,2013-01-16 13:03:00,
2013-01-16 08:33:00,28.0,20.0,-100.00,SW,215,13.0,24.0,70,0.00,,,0.00,0.000000,,2013-01-16 13:33:00,
2013-01-16 08:43:00,28.0,20.0,-100.00,SW,215,13.0,24.0,70,0.00,,,0.00,0.000000,,2013-01-16 13:43:00,
2013-01-16 08:53:00,28.0,20.0,-100.00,SW,215,13.0,24.0,70,0.00,,,0.00,0.000000,,2013-01-16 13:53:00,
2013-01-16 09:03:00,28.0,20.0,-100.00,SW,215,13.0,24.0,70,0.00,,,0.00,0.000000,,2013-01-16 14:03:00,
2013-01-16 09:33:00,29.0,20.0,-100.00,SW,223,18.0,27.0,69,0.00,,,0.00,10.000000,,2013-01-16 14:33:00,
2013-01-16 09:43:00,29.0,20.0,-100.00,SW,223,18.0,27.0,69,0.00,,,0.00,10.000000,,2013-01-16 14:43:00,
2013-01-16 09:53:00,29.0,20.0,-100.00,SW,223,18.0,27.0,69,0.00,,,0.00,10.000000,,2013-01-16 14:53:00,
2013-01-16 10:03:00,29.0,20.0,-100.00,SW,223,18.0,27.0,69,0.00,,,0.00,10.000000,,2013-01-16 15:03:00,
2013-01-16 10:04:00,31.0,22.0,-100.00,SW,232,19.0,32.0,68,0.00,,,0.00,48.000000,,2013-01-16 15:04:00,
2013-01-16 10:33:00,31.0,22.0,-100.00,SW,232,19.0,32.0,68,0.00,,,0.00,48.000000,,2013-01-16 15:33:00,
2013-01-16 10:43:00,31.0,22.0,-100.00,SW,232,19.0,32.0,68,0.00,,,0.00,48.000000,,2013-01-16 15:43:00,
2013-01-16 10:53:00,31.0,22.0,-100.00,SW,232,19.0,32.0,68,0.00,,,0.00,48.000000,,2013-01-16 15:53:00,
2013-01-16 11:33:00,28.0,26.0,-100.00,WSW,246,14.0,38.0,91,0.00,,,0.00,72.000000,,2013-01-16 16:33:00,
2013-01-16 11:43:00,28.0,26.0,-100.00,WSW,246,14.0,38.0,91,0.00,,,0.00,72.000000,,2013-01-16 16:43:00,
2013-01-16 11:53:00,28.0,26.0,-100.00,WSW,246,14.0,38.0,91,0.00,,,0.00,72.000000,,2013-01-16 16:53:00,
2013-01-16 12:03:00,28.0,26.0,-100.00,WSW,246,14.0,38.0,91,0.00,,,0.00,72.000000,,2013-01-16 17:03:00,
2013-01-16 12:33:00,27.0,25.0,-100.00,WSW,258,15.0,33.0,91,0.00,,,0.00,86.000000,,2013-01-16 17:33:00,
2013-01-16 12:44:00,27.0,25.0,-100.00,WSW,258,15.0,33.0,91,0.00,,,0.00,86.000000,,2013-01-16 17:44:00,
2013-01-16 12:53:00,27.0,25.0,-100.00,WSW,258,15.0,33.0,91,0.00,,,0.00,86.000000,,2013-01-16 17:53:00,
2013-01-16 13:03:00,27.0,25.0,-100.00,WSW,258,15.0,33.0,91,0.00,,,0.00,86.000000,,2013-01-16 18:03:00,
2013-01-16 13:33:00,26.0,22.0,-100.00,West,267,15.0,25.0,85,0.00,,,0.00,69.000000,,2013-01-16 18:33:00,
2013-01-16 13:43:00,26.0,22.0,-100.00,West,267,15.0,25.0,85,0.00,,,0.00,69.000000,,2013-01-16 18:43:00,
2013-01-16 13:53:00,26.0,22.0,-100.00,West,267,15.0,25.0,85,0.00,,,0.00,69.000000,,2013-01-16 18:53:00,
2013-01-16 14:03:00,26.0,22.0,-100.00,West,267,15.0,25.0,85,0.00,,,0.00,69.000000,,2013-01-16 19:03:00,
2013-01-16 14:33:00,25.0,21.0,-100.00,West,259,11.0,21.0,86,0.00,,,0.00,42.000000,,2013-01-16 19:33:00,
2013-01-16 14:43:00,25.0,21.0,-100.00,West,259,11.0,21.0,86,0.00,,,0.00,42.000000,,2013-01-16 19:43:00,
2013-01-16 14:53:00,25.0,21.0,-100.00,West,259,11.0,21.0,86,0.00,,,0.00,42.000000,,2013-01-16 19:53:00,
2013-01-16 15:03:00,25.0,21.0,-100.00,West,259,11.0,21.0,86,0.00,,,0.00,42.000000,,2013-01-16 20:03:00,
2013-01-16 15:23:00,26.0,22.0,-100.00,WSW,252,10.0,17.0,85,0.00,,,0.00,62.000000,,2013-01-16 20:23:00,
2013-01-16 15:33:00,26.0,22.0,-100.00,WSW,252,10.0,17.0,85,0.00,,,0.00,62.000000,,2013-01-16 20:33:00,
2013-01-16 15:43:00,26.0,22.0,-100.00,WSW,252,10.0,17.0,85,0.00,,,0.00,62.000000,,2013-01-16 20:43:00,
2013-01-16 15:53:00,26.0,22.0,-100.00,WSW,252,10.0,17.0,85,0.00,,,0.00,62.000000,,2013-01-16 20:53:00,
2013-01-16 16:03:00,26.0,22.0,-100.00,WSW,252,10.0,17.0,85,0.00,,,0.00,62.000000,,2013-01-16 21:03:00,
2013-01-16 16:33:00,26.0,22.0,-100.00,West,264,11.0,17.0,86,0.00,,,0.00,25.000000,,2013-01-16 21:33:00,
2013-01-16 16:43:00,26.0,22.0,-100.00,West,264,11.0,17.0,86,0.00,,,0.00,25.000000,,2013-01-16 21:43:00,
2013-01-16 16:53:00,26.0,22.0,-100.00,West,264,11.0,17.0,86,0.00,,,0.00,25.000000,,2013-01-16 21:53:00,
2013-01-16 17:03:00,26.0,22.0,-100.00,West,264,11.0,17.0,86,0.00,,,0.00,25.000000,,2013-01-16 22:03:00,
2013-01-16 17:23:00,25.0,22.0,-100.00,West,272,9.0,15.0,87,0.00,,,0.00,6.000000,,2013-01-16 22:23:00,
2013-01-16 17:33:00,25.0,22.0,-100.00,West,272,9.0,15.0,87,0.00,,,0.00,6.000000,,2013-01-16 22:33:00,
2013-01-16 17:43:00,25.0,22.0,-100.00,West,272,9.0,15.0,87,0.00,,,0.00,6.000000,,2013-01-16 22:43:00,
2013-01-16 17:53:00,25.0,22.0,-100.00,West,272,9.0,15.0,87,0.00,,,0.00,6.000000,,2013-01-16 22:53:00,
2013-01-16 18:03:00,25.0,22.0,-100.00,West,272,9.0,15.0,87,0.00,,,0.00,6.000000,,2013-01-16 23:03:00,
2013-01-16 18:33:00,25.0,22.0,-100.00,WNW,295,7.0,14.0,90,0.00,,,0.00,0.000000,,2013-01-16 23:33:00,
2013-01-16 18:43:00,25.0,22.0,-100.00,WNW,295,7.0,14.0,90,0.00,,,0.00,0.000000,,2013-01-16 23:43:00,
2013-01-16 18:53:00,25.0,22.0,-100.00,WNW,295,7.0,14.0,90,0.00,,,0.00,0.000000,,2013-01-16 23:53:00,
2013-01-16 19:02:00,25.0,22.0,-100.00,WNW,295,7.0,14.0,90,0.00,,,0.00,0.000000,,2013-01-17 00:02:00,
2013-01-16 19:33:00,22.0,19.0,-100.00,NNW,332,8.0,20.0,88,0.00,,,0.00,0.000000,,2013-01-17 00:33:00,
2013-01-16 19:42:00,22.0,19.0,-100.00,NNW,332,8.0,20.0,88,0.00,,,0.00,0.000000,,2013-01-17 00:42:00,
2013-01-16 19:53:00,22.0,19.0,-100.00,NNW,332,8.0,20.0,88,0.00,,,0.00,0.000000,,2013-01-17 00:53:00,
2013-01-16 20:02:00,22.0,19.0,-100.00,NNW,332,8.0,20.0,88,0.00,,,0.00,0.000000,,2013-01-17 01:02:00,
2013-01-16 20:22:00,20.0,12.0,-100.00,NNW,346,10.0,23.0,70,0.00,,,0.00,0.000000,,2013-01-17 01:22:00,
2013-01-16 20:33:00,20.0,12.0,-100.00,NNW,346,10.0,23.0,70,0.00,,,0.00,0.000000,,2013-01-17 01:33:00,
2013-01-16 20:43:00,20.0,12.0,-100.00,NNW,346,10.0,23.0,70,0.00,,,0.00,0.000000,,2013-01-17 01:43:00,
2013-01-16 20:53:00,20.0,12.0,-100.00,NNW,346,10.0,23.0,70,0.00,,,0.00,0.000000,,2013-01-17 01:53:00,
2013-01-16 21:02:00,20.0,12.0,-100.00,NNW,346,10.0,23.0,70,0.00,,,0.00,0.000000,,2013-01-17 02:02:00,
2013-01-16 21:32:00,18.0,8.0,-100.00,NNW,337,12.0,21.0,63,0.00,,,0.00,0.000000,,2013-01-17 02:32:00,
2013-01-16 21:43:00,18.0,8.0,-100.00,NNW,337,12.0,21.0,63,0.00,,,0.00,0.000000,,2013-01-17 02:43:00,
2013-01-16 21:52:00,18.0,8.0,-100.00,NNW,337,12.0,21.0,63,0.00,,,0.00,0.000000,,2013-01-17 02:52:00,
2013-01-16 22:03:00,18.0,8.0,-100.00,NNW,337,12.0,21.0,63,0.00,,,0.00,0.000000,,2013-01-17 03:03:00,
2013-01-16 22:33:00,16.0,6.0,-100.00,North,352,11.0,23.0,64,0.00,,,0.00,0.000000,,2013-01-17 03:33:00,
2013-01-16 22:43:00,16.0,6.0,-100.00,North,352,11.0,23.0,64,0.00,,,0.00,0.000000,,2013-01-17 03:43:00,
2013-01-16 22:53:00,16.0,6.0,-100.00,North,352,11.0,23.0,64,0.00,,,0.00,0.000000,,2013-01-17 03:53:00,
2013-01-16 23:02:00,16.0,6.0,-100.00,North,352,11.0,23.0,64,0.00,,,0.00,0.000000,,2013-01-17 04:02:00,
2013-01-16 23:04:00,14.0,6.0,-100.00,North,351,11.0,24.0,70,0.00,,,0.00,0.000000,,2013-01-17 04:04:00,
2013-01-16 23:33:00,14.0,6.0,-100.00,North,351,11.0,24.0,70,0.00,,,0.00,0.000000,,2013-01-17 04:33:00,
2013-01-16 23:43:00,14.0,6.0,-100.00,North,351,11.0,24.0,70,0.00,,,0.00,0.000000,,2013-01-17 04:43:00,
2013-01-16 23:53:00,14.0,6.0,-100.00,North,351,11.0,24.0,70,0.00,,,0.00,0.000000,,2013-01-17 04:53:00,